Skip Page Navigation
NASA JPL Caltech
NASA Logo - Jet Propulsion Laboratory + View the NASA Portal
+ Center for Near-Earth Object Studies
JPL Home Earth Solar System Stars & Galaxies Technology
JPL Solar System Dynamics
BODIES ORBITS EPHEMERIDES TOOLS PHYSICAL DATA DISCOVERY FAQ SITE MAP
IMPORTANT: The SSD Announcement email list is now available. Major changes are coming in the near future, including possible hostname and/or URL changes. To be notified of such changes, subscribe to this email list.

Please visit this page for more details.


JPL Small-Body Database Browser
Search: [ help ]  
393899 (2005 TV150)
Classification: Main-belt Asteroid          SPK-ID: 2393899
Ephemeris | Orbit Diagram | Orbital Elements | Mission Design | Physical Parameters | Discovery Circumstances | Close-Approach Data ]

[ show orbit diagram ]
Orbital Elements at Epoch 2459000.5 (2020-May-31.0) TDB
Reference: JPL 7 (heliocentric ecliptic J2000)
 Element Value Uncertainty (1-sigma)   Units 
e .1012371596528647 1.6675e-07  
a 3.190536031242797 1.2304e-07 au
q 2.867535225669652 5.1726e-07 au
i 12.59317890108574 1.8285e-05 deg
node 36.48160860945118 4.9674e-05 deg
peri 28.00531627525684 9.9446e-05 deg
M 168.9022654641321 8.8296e-05 deg
tp 2458023.877150158160
(2017-Sep-27.37715016)
0.00048563 TDB
period 2081.583837711903
5.70
0.00012041
3.297e-07
d
yr
n .1729452321246477 1.0004e-08 deg/d
Q 3.513536836815942 1.355e-07 au
  Orbit Determination Parameters
   # obs. used (total)      49  
   data-arc span      3991 days (10.93 yr)  
   first obs. used      2005-10-08  
   last obs. used      2016-09-11  
   planetary ephem.      DE431  
   SB-pert. ephem.      SB431-N16  
   condition code      0  
   norm. resid. RMS      .56458  
   source      ORB  
   producer      Otto Matic  
   solution date      2017-Apr-09 21:09:11  

Additional Information
 Earth MOID = 1.8863 au 
 Jupiter MOID = 1.91191 au 
 T_jup = 3.151 
[ show covariance matrix ]

Ephemeris | Orbit Diagram | Orbital Elements | Mission Design | Physical Parameters | Discovery Circumstances | Close-Approach Data ]

Physical Parameter Table
Parameter Symbol Value Units Sigma Reference Notes
absolute magnitude H 16.7   n/a MPO392028  

393899 (2005 TV150)          Discovered 2005-Oct-08 by Spacewatch at Kitt Peak
Reference: Last Updated: 2014-05-15

[ show close-approach data ]
Alternate Designations
 2005 TV150 = 2011 UW353 
Ephemeris | Orbit Diagram | Orbital Elements | Mission Design | Physical Parameters | Discovery Circumstances | Close-Approach Data ]
ABOUT SSD CREDITS/AWARDS PRIVACY/COPYRIGHT GLOSSARY LINKS
FirstGov 2020-Apr-01 09:46 UT
(server date/time)  
NASA Home Page
Site Manager:   Ryan S. Park
Webmaster  Alan B. Chamberlin